When you browse on this site, cookies collect data to enhance your experience and personalize the content and advertising you see.
Visit our Privacy Policy to learn more. By continuing to use the site, you agree to this use of cookies and data.
  • en France
  • Liste des pays
  • À 7 jours
  • Température de l'eau
  • Carte satellitaire
  • Carte météo
  • Widgets météo
  • user-avatar
    Se connecter

    Météo par heure à Eisenstadt

    Ce jour, 18 Juin, Mardi

    Heure Température Précipitation Vent Pression Humidité
    00:00 +19°C° 0 mm 1 m/s 724 mmHg 84%
    01:00 +19°C° 0 mm 1 m/s 724 mmHg 83%
    02:00 +18°C° 0 mm 1 m/s 724 mmHg 84%
    03:00 +18°C° 0 mm 1 m/s 723 mmHg 84%
    04:00 +18°C° 0 mm 1 m/s 723 mmHg 85%
    05:00 +19°C° 0 mm 1 m/s 724 mmHg 82%
    06:00 +20°C° 0 mm 1 m/s 724 mmHg 80%
    07:00 +21°C° 0 mm 1 m/s 724 mmHg 78%
    08:00 +22°C° 0.1 mm 1 m/s 724 mmHg 73%
    09:00 +23°C° 0.1 mm 1 m/s 724 mmHg 68%
    10:00 +25°C° 0.1 mm 1 m/s 724 mmHg 63%
    11:00 +25°C° 0.1 mm 1 m/s 724 mmHg 60%
    12:00 +26°C° 0.1 mm 2 m/s 724 mmHg 56%
    13:00 +27°C° 0.1 mm 2 m/s 723 mmHg 52%
    14:00 +27°C° 0.2 mm 2 m/s 723 mmHg 57%
    15:00 +26°C° 0.2 mm 2 m/s 723 mmHg 61%
    16:00 +26°C° 0.2 mm 2 m/s 722 mmHg 65%
    17:00 +25°C° 0.2 mm 2 m/s 722 mmHg 71%
    18:00 +24°C° 0.2 mm 1 m/s 722 mmHg 76%
    19:00 +23°C° 0.2 mm 1 m/s 722 mmHg 82%
    20:00 +22°C° 0.1 mm 1 m/s 722 mmHg 84%
    21:00 +21°C° 0.1 mm 1 m/s 722 mmHg 86%
    22:00 +19°C° 0.1 mm 1 m/s 722 mmHg 89%
    23:00 +19°C° 0 mm 1 m/s 722 mmHg 89%

    Demain, 19 Juin, Mercredi

    Heure Température Précipitation Vent Pression Humidité
    00:00 +19°C° 0 mm 1 m/s 721 mmHg 89%
    01:00 +18°C° 0 mm 1 m/s 721 mmHg 90%
    02:00 +18°C° 0 mm 1 m/s 721 mmHg 90%
    03:00 +18°C° 0 mm 1 m/s 721 mmHg 90%
    04:00 +16°C° 0 mm 0 m/s 721 mmHg 89%
    05:00 +17°C° 0 mm 0 m/s 721 mmHg 85%
    06:00 +19°C° 0 mm 0 m/s 721 mmHg 81%
    07:00 +21°C° 0 mm 0 m/s 721 mmHg 76%
    08:00 +24°C° 0.1 mm 1 m/s 721 mmHg 71%
    09:00 +25°C° 0.1 mm 1 m/s 721 mmHg 66%
    10:00 +27°C° 0.1 mm 2 m/s 721 mmHg 60%
    11:00 +28°C° 0 mm 2 m/s 721 mmHg 57%
    12:00 +28°C° 0 mm 2 m/s 721 mmHg 53%
    13:00 +29°C° 0 mm 3 m/s 720 mmHg 49%
    14:00 +29°C° 0.3 mm 3 m/s 720 mmHg 53%
    15:00 +28°C° 0.3 mm 2 m/s 720 mmHg 57%
    16:00 +28°C° 0.3 mm 2 m/s 720 mmHg 61%
    17:00 +26°C° 1.5 mm 2 m/s 720 mmHg 69%
    18:00 +24°C° 1.5 mm 2 m/s 720 mmHg 77%
    19:00 +23°C° 1.5 mm 1 m/s 719 mmHg 84%
    20:00 +22°C° 0.6 mm 1 m/s 720 mmHg 85%
    21:00 +21°C° 0.6 mm 1 m/s 720 mmHg 85%
    22:00 +20°C° 0.6 mm 1 m/s 720 mmHg 85%
    23:00 +19°C° 0.1 mm 1 m/s 720 mmHg 85%

    Après-demain, 20 Juin, Jeudi

    Heure Température Précipitation Vent Pression Humidité
    00:00 +19°C° 0.1 mm 1 m/s 720 mmHg 85%
    01:00 +19°C° 0.1 mm 1 m/s 719 mmHg 84%
    02:00 +18°C° 0.2 mm 1 m/s 720 mmHg 85%
    03:00 +18°C° 0.2 mm 1 m/s 720 mmHg 85%
    04:00 +16°C° 0.2 mm 1 m/s 720 mmHg 86%
    05:00 +19°C° 0 mm 1 m/s 720 mmHg 82%
    06:00 +21°C° 0 mm 1 m/s 720 mmHg 79%
    07:00 +21°C° 0 mm 0 m/s 720 mmHg 76%
    08:00 +24°C° 0.9 mm 1 m/s 720 mmHg 74%
    09:00 +25°C° 0.9 mm 1 m/s 721 mmHg 72%
    10:00 +26°C° 0.9 mm 1 m/s 721 mmHg 70%
    11:00 +27°C° 0.7 mm 1 m/s 720 mmHg 64%
    12:00 +28°C° 0.7 mm 2 m/s 720 mmHg 57%
    13:00 +29°C° 0.7 mm 2 m/s 720 mmHg 51%
    14:00 +29°C° 0.2 mm 2 m/s 720 mmHg 53%
    15:00 +29°C° 0.2 mm 2 m/s 719 mmHg 55%
    16:00 +28°C° 0.2 mm 2 m/s 719 mmHg 56%
    17:00 +27°C° 0.9 mm 2 m/s 719 mmHg 64%
    18:00 +25°C° 0.9 mm 2 m/s 719 mmHg 72%
    19:00 +24°C° 0.9 mm 1 m/s 718 mmHg 80%
    20:00 +23°C° 0.1 mm 1 m/s 719 mmHg 82%
    21:00 +22°C° 0.1 mm 1 m/s 719 mmHg 83%
    22:00 +21°C° 0.1 mm 1 m/s 719 mmHg 85%
    23:00 +20°C° 1.3 mm 1 m/s 719 mmHg 87%

    21 Juin, Vendredi

    Heure Température Précipitation Vent Pression Humidité
    00:00 +20°C° 1.3 mm 1 m/s 720 mmHg 89%
    01:00 +18°C° 1.3 mm 2 m/s 720 mmHg 92%
    02:00 +18°C° 1.2 mm 2 m/s 720 mmHg 92%
    03:00 +18°C° 1.2 mm 2 m/s 720 mmHg 93%
    04:00 +17°C° 1.2 mm 2 m/s 720 mmHg 93%
    05:00 +18°C° 0.3 mm 2 m/s 720 mmHg 90%
    06:00 +20°C° 0.3 mm 2 m/s 721 mmHg 87%
    07:00 +21°C° 0.3 mm 2 m/s 721 mmHg 84%
    08:00 +23°C° 0.2 mm 2 m/s 721 mmHg 78%
    09:00 +24°C° 0.2 mm 2 m/s 721 mmHg 73%
    10:00 +26°C° 0.2 mm 2 m/s 722 mmHg 67%
    11:00 +26°C° 0.9 mm 2 m/s 721 mmHg 69%
    12:00 +26°C° 0.9 mm 1 m/s 721 mmHg 71%
    13:00 +26°C° 0.9 mm 1 m/s 721 mmHg 73%
    14:00 +25°C° 1.9 mm 1 m/s 721 mmHg 74%
    15:00 +25°C° 1.9 mm 1 m/s 721 mmHg 75%
    16:00 +25°C° 1.9 mm 1 m/s 720 mmHg 77%
    17:00 +24°C° 0.6 mm 1 m/s 720 mmHg 81%
    18:00 +22°C° 0.6 mm 1 m/s 720 mmHg 85%
    19:00 +21°C° 0.6 mm 1 m/s 720 mmHg 89%
    20:00 +21°C° 0.1 mm 1 m/s 721 mmHg 88%
    21:00 +20°C° 0.1 mm 1 m/s 721 mmHg 88%
    22:00 +20°C° 0.1 mm 1 m/s 721 mmHg 88%
    23:00 +19°C° 0.5 mm 2 m/s 722 mmHg 89%

    22 Juin, Samedi

    Heure Température Précipitation Vent Pression Humidité
    00:00 +18°C° 0.5 mm 2 m/s 722 mmHg 91%
    01:00 +18°C° 0.5 mm 2 m/s 722 mmHg 92%
    02:00 +18°C° 0.4 mm 2 m/s 722 mmHg 93%
    03:00 +18°C° 0.4 mm 2 m/s 722 mmHg 93%
    04:00 +17°C° 0.4 mm 2 m/s 722 mmHg 94%
    05:00 +18°C° 0.1 mm 2 m/s 722 mmHg 92%
    06:00 +18°C° 0.1 mm 2 m/s 722 mmHg 91%
    07:00 +19°C° 0.1 mm 2 m/s 723 mmHg 89%
    08:00 +20°C° 0.2 mm 2 m/s 723 mmHg 85%
    09:00 +20°C° 0.2 mm 2 m/s 723 mmHg 81%
    10:00 +21°C° 0.2 mm 3 m/s 723 mmHg 77%
    11:00 +22°C° 0.2 mm 3 m/s 723 mmHg 75%
    12:00 +24°C° 0.2 mm 3 m/s 723 mmHg 72%
    13:00 +23°C° 0.2 mm 4 m/s 723 mmHg 69%
    14:00 +24°C° 0.3 mm 3 m/s 722 mmHg 72%
    15:00 +22°C° 0.3 mm 3 m/s 722 mmHg 74%
    16:00 +23°C° 0.3 mm 2 m/s 722 mmHg 77%
    17:00 +21°C° 0.1 mm 2 m/s 722 mmHg 81%
    18:00 +21°C° 0.1 mm 2 m/s 722 mmHg 84%
    19:00 +21°C° 0.1 mm 1 m/s 722 mmHg 87%
    20:00 +20°C° 0.3 mm 1 m/s 722 mmHg 89%
    21:00 +20°C° 0.3 mm 1 m/s 722 mmHg 90%
    22:00 +19°C° 0.3 mm 1 m/s 722 mmHg 92%
    23:00 +19°C° 0.1 mm 1 m/s 722 mmHg 92%

    23 Juin, Dimanche

    Heure Température Précipitation Vent Pression Humidité
    00:00 +18°C° 0.1 mm 1 m/s 722 mmHg 92%
    01:00 +18°C° 0.1 mm 1 m/s 722 mmHg 93%
    02:00 +18°C° 0.2 mm 1 m/s 722 mmHg 93%
    03:00 +16°C° 0.2 mm 1 m/s 722 mmHg 94%
    04:00 +16°C° 0.2 mm 1 m/s 722 mmHg 95%
    05:00 +18°C° 0 mm 1 m/s 723 mmHg 92%
    06:00 +19°C° 0 mm 1 m/s 723 mmHg 90%
    07:00 +20°C° 0 mm 1 m/s 723 mmHg 87%
    08:00 +22°C° 0 mm 1 m/s 724 mmHg 78%
    09:00 +24°C° 0 mm 1 m/s 724 mmHg 68%
    10:00 +26°C° 0 mm 2 m/s 724 mmHg 59%
    11:00 +26°C° 0.1 mm 2 m/s 724 mmHg 58%
    12:00 +27°C° 0.1 mm 2 m/s 724 mmHg 58%
    13:00 +27°C° 0.1 mm 2 m/s 724 mmHg 57%
    14:00 +26°C° 0.5 mm 2 m/s 724 mmHg 62%
    15:00 +26°C° 0.5 mm 2 m/s 724 mmHg 67%
    16:00 +25°C° 0.5 mm 3 m/s 724 mmHg 71%
    17:00 +24°C° 0.2 mm 2 m/s 724 mmHg 77%
    18:00 +21°C° 0.2 mm 2 m/s 724 mmHg 82%
    19:00 +20°C° 0.2 mm 2 m/s 725 mmHg 87%
    20:00 +19°C° 0 mm 2 m/s 725 mmHg 89%
    21:00 +18°C° 0 mm 2 m/s 725 mmHg 91%
    22:00 +17°C° 0 mm 2 m/s 726 mmHg 93%
    23:00 +16°C° 0 mm 2 m/s 726 mmHg 93%
    Voir plus